Regional Weather Roundup
Issued by NWS

Home | Current Version | Previous Version | Graphics & Text | Print | Product List | Glossary On
Versions: 1 2 3 4 5 6 7 8 9 10 11 12 13 14 15 16 17 18 19 20 21 22 23 24 25 26 27 28 29 30 31 32 33 34 35 36 37 38 39 40 41 42 43 44 45 46 47 48 49 50
000
ASUS43 KLMK 300110
RWRKY
KENTUCKY REGIONAL WEATHER ROUNDUP
NATIONAL WEATHER SERVICE LOUISVILLE KY
900 PM EDT FRI AUG 29 2014

NOTE "FAIR" INDICATES FEW OR NO CLOUDS BELOW 12,000 FEET
WITH NO SIGNIFICANT WEATHER AND/OR OBSTRUCTIONS TO VISIBILITY.

KYZ001>023-026-027-061>063-070>075-300200-
WESTERN AND SOUTH CENTRAL KENTUCKY

CITY           SKY/WX    TMP DP  RH WIND       PRES   REMARKS
PADUCAH        PTCLDY    81  67  62 SW5       29.94R
HENDERSON      CLEAR     79  63  57 S5        29.94R
OWENSBORO      NOT AVBL
HOPKINSVILLE   CLEAR     82  63  52 S6        29.98R
BOWLING GREEN  PTCLDY    78  65  63 SE5       30.00R
GLASGOW        CLEAR     79  63  58 CALM      30.01S
$$

KYZ024-025-028>034-038-045-046-053-300200-
NORTH CENTRAL KENTUCKY

CITY           SKY/WX    TMP DP  RH WIND       PRES   REMARKS
LOUISVILLE/SDF MOCLDY    84  61  45 S8        29.99S
LOUISVILLE/LOU MOCLDY    84  63  49 SE3       30.00R
FORT KNOX      MOCLDY    79  66  65 SE7       30.00S
$$

KYZ035>037-039>044-047>052-055>060-089>105-300200-
NORTHEAST KENTUCKY

CITY           SKY/WX    TMP DP  RH WIND       PRES   REMARKS
LEXINGTON      CLEAR     81  69  67 SE6       30.04R
COVINGTON      MOCLDY    80  69  69 SE8       30.03R
FRANKFORT      PTCLDY    78  66  66 SW3       30.02R
$$

KYZ054-064>069-076>088-106>120-300200-
SOUTHEAST KENTUCKY

CITY           SKY/WX    TMP DP  RH WIND       PRES   REMARKS
JACKSON        CLEAR     76  71  85 CALM      30.09R
LONDON         CLEAR     81  71  71 CALM      30.07R
SOMERSET       CLEAR     75  68  78 CALM      30.06R
MIDDLESBORO    CLEAR     77  69  75 W3        30.08R
MONTICELLO     PTCLDY    74  71  90 CALM      30.07R
$$



USA.gov is the U.S. government's official web portal to all federal, state and local government web resources and services.